Oakland, ME

6:50 PM EST on December 09, 2016 (GMT -0500)
Waterville Lafleur

Weather History for KWVL - March, 2014

Change the Weather History Date:

Wednesday, March 5, 2014

  Actual Average Record
Temperature  
Mean Temperature 12 °F -  
Max Temperature 19 °F 38 °F 57 °F (1965)
Min Temperature 6 °F 17 °F -6 °F (1987)
Degree Days  
Heating Degree Days 52    
Moisture  
Dew Point -1 °F    
Average Humidity 57    
Maximum Humidity 85    
Minimum Humidity 37    
Precipitation  
Precipitation 0.00 in - - ()
Sea Level Pressure  
Sea Level Pressure 30.31 in    
Wind  
Wind Speed 9 mph (North)    
Max Wind Speed 15 mph    
Max Gust Speed 24 mph    
Visibility 9 miles    
Events      
Averages and records for this station are not official NWS values.
T = Trace of Precipitation, MM = Missing Value Source: NWS Daily Summary

Daily Weather History Graph

Daily Weather History Graph

Search for Another Location

Airport or City:

Trip Planner

Search our weather history database for the weather conditions in past years. The results will help you decide how hot, cold, wet, or windy it might be!

Date:

Astronomy

Mar. 05, 2014 Rise Set
Actual Time 6:09 AM EST 5:31 PM EST
Civil Twilight 5:40 AM EST 6:00 PM EST
Nautical Twilight 5:06 AM EST 6:34 PM EST
Astronomical Twilight 4:32 AM EST 7:08 PM EST
Moon 8:20 AM EST (3/5) 10:50 PM EST (3/5)
Length of Visible Light 12h 20m
Length of Day
11h 22m
Waxing Crescent, 23% of the Moon is Illuminated
Mar 5
Waxing Crescent
Mar 8
First Quarter
Mar 16
Full
Mar 23
Last Quarter
Mar 30
New

Hourly Weather History & Observations

Time (EST) Temp. Windchill Dew Point Humidity Pressure Visibility Wind Dir Wind Speed Gust Speed Precip Events Conditions
12:15 AM 15.8 °F 3.4 °F 1.4 °F 53% 30.23 in 10.0 mi North 10.4 mph - N/A   Partly Cloudy
12:35 AM 15.8 °F 4.2 °F 1.4 °F 53% 30.23 in 10.0 mi North 9.2 mph - N/A   Mostly Cloudy
12:55 AM 15.8 °F 5.1 °F 1.4 °F 53% 30.23 in 10.0 mi North 8.1 mph - N/A   Overcast
1:15 AM 15.8 °F 4.2 °F 3.2 °F 58% 30.23 in 10.0 mi North 9.2 mph - N/A   Overcast
1:35 AM 15.8 °F 5.1 °F 6.8 °F 68% 30.24 in 3.0 mi NNE 8.1 mph - N/A   Overcast
1:55 AM 14.0 °F 3.9 °F -7.6 °F 38% 30.23 in 2.5 mi NNE 6.9 mph - N/A   Overcast
2:15 AM 14.0 °F 2.9 °F 6.8 °F 73% 30.23 in 3.0 mi NNE 8.1 mph - N/A   Overcast
2:35 AM 14.0 °F 5.1 °F 8.6 °F 79% 30.23 in 5.0 mi NNE 5.8 mph - N/A   Scattered Clouds
2:55 AM 12.2 °F 1.7 °F 8.6 °F 85% 30.23 in 9.0 mi NNE 6.9 mph - N/A   Partly Cloudy
3:15 AM 12.2 °F 0.7 °F 8.6 °F 85% 30.24 in 5.0 mi NNE 8.1 mph - N/A   Mostly Cloudy
3:35 AM 12.2 °F 0.7 °F 8.6 °F 85% 30.24 in 3.0 mi NNE 8.1 mph - N/A   Overcast
3:55 AM 12.2 °F 0.7 °F 8.6 °F 85% 30.24 in 2.0 mi NNE 8.1 mph - N/A   Overcast
4:15 AM 12.2 °F -0.2 °F 8.6 °F 85% 30.24 in 3.0 mi North 9.2 mph - N/A   Overcast
4:35 AM 12.2 °F -0.2 °F 8.6 °F 85% 30.25 in 4.0 mi North 9.2 mph - N/A   Overcast
4:55 AM 12.2 °F -0.2 °F 8.6 °F 85% 30.25 in 7.0 mi NNE 9.2 mph - N/A   Mostly Cloudy
5:15 AM 12.2 °F -0.2 °F 6.8 °F 79% 30.25 in 10.0 mi NNE 9.2 mph - N/A   Clear
5:35 AM 12.2 °F 2.9 °F 8.6 °F 85% 30.26 in 9.0 mi NE 5.8 mph - N/A   Scattered Clouds
5:55 AM 10.4 °F -4.1 °F 6.8 °F 85% 30.27 in 5.0 mi NNE 11.5 mph - N/A   Mostly Cloudy
6:15 AM 10.4 °F -3.3 °F 3.2 °F 73% 30.28 in 7.0 mi NNE 10.4 mph - N/A   Mostly Cloudy
6:35 AM 8.6 °F -6.3 °F 1.4 °F 73% 30.28 in 10.0 mi NNE 11.5 mph 16.1 mph N/A   Mostly Cloudy
6:55 AM 8.6 °F -2.6 °F 1.4 °F 73% 30.29 in 9.0 mi NE 6.9 mph - N/A   Mostly Cloudy
7:15 AM 6.8 °F -8.6 °F -0.4 °F 72% 30.30 in 10.0 mi NNE 11.5 mph - N/A   Mostly Cloudy
7:35 AM 6.8 °F -8.6 °F -0.4 °F 72% 30.30 in 10.0 mi NNE 11.5 mph - N/A   Mostly Cloudy
7:55 AM 6.8 °F -7.8 °F -0.4 °F 72% 30.31 in 10.0 mi NNE 10.4 mph - N/A   Scattered Clouds
8:15 AM 6.8 °F -7.8 °F -0.4 °F 72% 30.32 in 10.0 mi NNE 10.4 mph 16.1 mph N/A   Clear
8:35 AM 6.8 °F -6.9 °F -0.4 °F 72% 30.32 in 10.0 mi NNE 9.2 mph - N/A   Clear
8:55 AM 6.8 °F -6.9 °F -0.4 °F 72% 30.32 in 10.0 mi NNE 9.2 mph - N/A   Clear
9:15 AM 6.8 °F -6.9 °F -0.4 °F 72% 30.32 in 10.0 mi NNE 9.2 mph - N/A   Clear
9:35 AM 8.6 °F -3.7 °F -0.4 °F 67% 30.33 in 10.0 mi NE 8.1 mph - N/A   Clear
9:55 AM 8.6 °F -5.5 °F -2.2 °F 62% 30.32 in 10.0 mi NNE 10.4 mph - N/A   Clear
10:15 AM 8.6 °F -5.5 °F -2.2 °F 62% 30.33 in 10.0 mi NNE 10.4 mph - N/A   Clear
10:35 AM 10.4 °F 0.8 °F -2.2 °F 57% 30.33 in 10.0 mi NNE 5.8 mph - N/A   Clear
10:55 AM 10.4 °F -2.4 °F -2.2 °F 57% 30.32 in 10.0 mi North 9.2 mph - N/A   Partly Cloudy
11:15 AM 10.4 °F -3.3 °F -2.2 °F 57% 30.32 in 10.0 mi NNE 10.4 mph - N/A   Partly Cloudy
11:35 AM 12.2 °F -0.2 °F -0.4 °F 57% 30.31 in 10.0 mi NNE 9.2 mph - N/A   Clear
11:55 AM 12.2 °F 0.7 °F -0.4 °F 57% 30.31 in 10.0 mi North 8.1 mph - N/A   Clear
12:15 PM 14.0 °F -0.2 °F -2.2 °F 49% 30.30 in 10.0 mi North 12.7 mph 16.1 mph N/A   Clear
12:35 PM 14.0 °F 1.2 °F -2.2 °F 49% 30.29 in 10.0 mi North 10.4 mph - N/A   Clear
12:55 PM 14.0 °F 2.0 °F -2.2 °F 49% 30.28 in 10.0 mi NNW 9.2 mph - N/A   Partly Cloudy
1:15 PM 15.8 °F 3.4 °F -2.2 °F 45% 30.28 in 10.0 mi NNE 10.4 mph - N/A   Scattered Clouds
1:35 PM 15.8 °F 7.2 °F -0.4 °F 49% 30.28 in 10.0 mi North 5.8 mph - N/A   Scattered Clouds
1:55 PM 15.8 °F 5.1 °F -2.2 °F 45% 30.27 in 10.0 mi North 8.1 mph - N/A   Scattered Clouds
2:15 PM 15.8 °F 5.1 °F -2.2 °F 45% 30.28 in 10.0 mi North 8.1 mph - N/A   Scattered Clouds
2:35 PM 17.6 °F 12.3 °F -2.2 °F 42% 30.28 in 10.0 mi NE 3.5 mph - N/A   Scattered Clouds
2:55 PM 17.6 °F 7.3 °F -0.4 °F 45% 30.28 in 10.0 mi North 8.1 mph - N/A   Partly Cloudy
3:15 PM 17.6 °F 8.2 °F -0.4 °F 45% 30.28 in 10.0 mi NE 6.9 mph - N/A   Clear
3:35 PM 19.4 °F 10.4 °F -2.2 °F 39% 30.29 in 10.0 mi NNW 6.9 mph - N/A   Partly Cloudy
3:55 PM 19.4 °F 8.6 °F -0.4 °F 42% 30.29 in 10.0 mi NNE 9.2 mph - N/A   Partly Cloudy
4:15 PM 19.4 °F 11.5 °F -0.4 °F 42% 30.29 in 10.0 mi NW 5.8 mph - N/A   Scattered Clouds
4:35 PM 19.4 °F 7.9 °F -2.2 °F 39% 30.29 in 10.0 mi NNE 10.4 mph - N/A   Scattered Clouds
4:55 PM 19.4 °F 10.4 °F -0.4 °F 42% 30.30 in 10.0 mi North 6.9 mph - N/A   Clear
5:15 PM - - - N/A% - 10.0 mi North - - N/A   Clear
5:35 PM - - - N/A% - 10.0 mi North - - N/A   Unknown
5:55 PM 17.6 °F 8.2 °F -2.2 °F 42% 30.32 in 10.0 mi North 6.9 mph - N/A   Clear
6:15 PM 17.6 °F 9.3 °F -2.2 °F 42% 30.33 in 10.0 mi North 5.8 mph - N/A   Clear
6:35 PM 15.8 °F 7.2 °F -2.2 °F 45% 30.34 in 10.0 mi NNW 5.8 mph - N/A   Clear
6:55 PM 15.8 °F 6.1 °F -2.2 °F 45% 30.34 in 10.0 mi NNW 6.9 mph - N/A   Clear
7:15 PM 15.8 °F 2.7 °F -2.2 °F 45% 30.35 in 10.0 mi NNW 11.5 mph - N/A   Clear
7:35 PM 15.8 °F 2.7 °F -4.0 °F 41% 30.36 in 10.0 mi NNW 11.5 mph - N/A   Clear
7:55 PM 15.8 °F 4.2 °F -5.8 °F 38% 30.36 in 10.0 mi North 9.2 mph - N/A   Clear
8:15 PM 14.0 °F 0.5 °F -5.8 °F 41% 30.37 in 10.0 mi NNW 11.5 mph - N/A   Clear
8:35 PM 14.0 °F 2.0 °F -5.8 °F 41% 30.38 in 10.0 mi North 9.2 mph - N/A   Clear
8:55 PM 12.2 °F -0.2 °F -5.8 °F 45% 30.39 in 10.0 mi NNW 9.2 mph - N/A   Clear
9:15 PM 12.2 °F -2.5 °F -5.8 °F 45% 30.40 in 10.0 mi NNW 12.7 mph - N/A   Clear
9:35 PM 12.2 °F -3.7 °F -7.6 °F 41% 30.41 in 10.0 mi NNW 15.0 mph 24.2 mph N/A   Clear
9:55 PM 12.2 °F -2.5 °F -7.6 °F 41% 30.42 in 10.0 mi NNW 12.7 mph 17.3 mph N/A   Clear
10:15 PM 10.4 °F -3.3 °F -9.4 °F 41% 30.42 in 10.0 mi NNW 10.4 mph - N/A   Clear
10:35 PM 10.4 °F -4.1 °F -9.4 °F 41% 30.43 in 10.0 mi NNW 11.5 mph - N/A   Clear
10:55 PM 10.4 °F -3.3 °F -11.2 °F 37% 30.43 in 10.0 mi North 10.4 mph - N/A   Clear
11:15 PM 8.6 °F -2.6 °F -11.2 °F 40% 30.44 in 10.0 mi North 6.9 mph - N/A   Clear
11:35 PM 8.6 °F -3.7 °F -11.2 °F 40% 30.44 in 10.0 mi North 8.1 mph - N/A   Clear
11:55 PM 8.6 °F -2.6 °F -11.2 °F 40% 30.45 in 10.0 mi North 6.9 mph - N/A   Clear